TimeCDT,TemperatureF,Dew PointF,Humidity,Sea Level PressureIn,VisibilityMPH,Wind Direction,Wind SpeedMPH,Gust SpeedMPH,PrecipitationIn,Events,Conditions,WindDirDegrees,DateUTC
12:56 AM,70.0,63.0,78,30.00,10.0,SSE,10.4,-,N/A,,Clear,160,2012-11-03 05:56:00
1:56 AM,68.0,63.0,84,30.00,10.0,SSE,8.1,-,N/A,,Clear,150,2012-11-03 06:56:00
2:56 AM,68.0,64.0,87,30.00,10.0,SSE,8.1,-,N/A,,Clear,160,2012-11-03 07:56:00
3:56 AM,68.0,64.9,90,30.00,10.0,SSE,6.9,-,N/A,,Clear,160,2012-11-03 08:56:00
4:56 AM,66.9,64.9,93,30.00,10.0,SSE,5.8,-,N/A,,Clear,160,2012-11-03 09:56:00
5:56 AM,66.0,64.0,93,30.02,10.0,SSE,3.5,-,N/A,,Clear,150,2012-11-03 10:56:00
6:56 AM,64.9,64.0,97,30.03,10.0,Calm,Calm,-,N/A,,Clear,0,2012-11-03 11:56:00
7:52 AM,64.4,64.4,100,30.05,1.8,Calm,Calm,-,N/A,,Partly Cloudy,0,2012-11-03 12:52:00
7:56 AM,64.0,64.0,100,30.05,1.2,Calm,Calm,-,N/A,,Partly Cloudy,0,2012-11-03 12:56:00
8:03 AM,64.4,62.6,94,30.05,2.5,Calm,Calm,-,N/A,,Partly Cloudy,0,2012-11-03 13:03:00
8:08 AM,62.6,62.6,100,30.06,1.0,NNE,3.5,-,N/A,,Mist,30,2012-11-03 13:08:00
8:10 AM,62.6,62.6,100,30.06,0.5,Calm,Calm,-,N/A,Fog,Fog,0,2012-11-03 13:10:00
8:18 AM,62.6,62.6,100,30.06,0.2,Calm,Calm,-,N/A,Fog,Fog,0,2012-11-03 13:18:00
8:56 AM,64.9,64.9,100,30.08,0.2,Calm,Calm,-,N/A,Fog,Fog,0,2012-11-03 13:56:00
9:27 AM,66.2,64.4,94,30.09,0.8,Calm,Calm,-,N/A,,Overcast,0,2012-11-03 14:27:00
9:34 AM,66.2,66.2,100,30.10,2.0,Calm,Calm,-,N/A,,Overcast,0,2012-11-03 14:34:00
9:36 AM,66.2,66.2,100,30.10,3.0,Calm,Calm,-,N/A,,Overcast,0,2012-11-03 14:36:00
9:56 AM,68.0,66.9,96,30.10,9.0,Calm,Calm,-,N/A,,Overcast,0,2012-11-03 14:56:00
10:06 AM,71.6,68.0,88,30.09,10.0,South,4.6,-,N/A,,Mostly Cloudy,190,2012-11-03 15:06:00
10:16 AM,71.6,66.2,83,30.10,10.0,SSW,6.9,-,N/A,,Scattered Clouds,200,2012-11-03 15:16:00
10:56 AM,75.0,66.0,73,30.10,10.0,South,9.2,-,N/A,,Scattered Clouds,190,2012-11-03 15:56:00
11:56 AM,80.1,66.0,62,30.09,10.0,South,8.1,-,N/A,,Partly Cloudy,170,2012-11-03 16:56:00
12:56 PM,82.0,64.9,56,30.07,10.0,South,5.8,-,N/A,,Scattered Clouds,180,2012-11-03 17:56:00
1:56 PM,84.9,64.0,49,30.03,10.0,Variable,4.6,-,N/A,,Partly Cloudy,0,2012-11-03 18:56:00
2:56 PM,82.9,62.1,49,30.01,10.0,SW,3.5,-,N/A,,Scattered Clouds,220,2012-11-03 19:56:00
3:56 PM,84.9,61.0,44,30.00,10.0,South,5.8,-,N/A,,Clear,190,2012-11-03 20:56:00
4:33 PM,84.2,57.2,40,30.00,10.0,SSE,5.8,-,N/A,Thunderstorm,Thunderstorm,150,2012-11-03 21:33:00
4:49 PM,84.2,60.8,45,29.99,10.0,ESE,9.2,-,N/A,,Mostly Cloudy,120,2012-11-03 21:49:00
4:56 PM,84.9,59.0,41,29.99,10.0,ESE,9.2,-,N/A,,Mostly Cloudy,120,2012-11-03 21:56:00
5:08 PM,80.6,60.8,51,29.99,10.0,East,8.1,-,0.01,Rain-Thunderstorm,Light Thunderstorms and Rain,80,2012-11-03 22:08:00
5:48 PM,80.6,57.2,45,30.00,10.0,SE,9.2,-,0.01,,Scattered Clouds,130,2012-11-03 22:48:00
5:56 PM,79.0,57.9,48,30.01,10.0,ESE,13.8,20.7,0.01,,Partly Cloudy,120,2012-11-03 22:56:00
6:18 PM,75.2,59.0,57,30.02,10.0,ESE,8.1,-,N/A,Thunderstorm,Thunderstorm,120,2012-11-03 23:18:00
6:38 PM,73.4,57.2,57,30.03,10.0,East,9.2,17.3,N/A,,Clear,90,2012-11-03 23:38:00
6:56 PM,72.0,60.1,66,30.04,10.0,East,6.9,-,N/A,,Clear,90,2012-11-03 23:56:00
7:56 PM,69.1,59.0,70,30.06,10.0,SE,5.8,-,N/A,,Clear,130,2012-11-04 00:56:00
8:56 PM,68.0,59.0,73,30.07,10.0,SSE,4.6,-,N/A,,Clear,150,2012-11-04 01:56:00
9:56 PM,66.0,59.0,78,30.06,10.0,SSE,4.6,-,N/A,,Clear,150,2012-11-04 02:56:00
10:56 PM,64.9,59.0,81,30.07,10.0,SSE,3.5,-,N/A,,Clear,160,2012-11-04 03:56:00
11:56 PM,64.9,59.0,81,30.08,10.0,Calm,Calm,-,N/A,,Clear,0,2012-11-04 04:56:00